Regional Weather Roundup
Issued by NWS State College, PA

Home | Current Version | Previous Version | Text Only | Print | Product List | Glossary On
Versions: 1 2 3 4 5 6 7 8 9 10 11 12 13 14 15 16 17 18 19 20 21 22 23 24 25 26 27 28 29 30 31 32 33 34 35 36 37 38 39 40 41 42 43 44 45 46 47 48 49 50
000
ASUS41 KCTP 221610
RWRCTP

REGIONAL WEATHER ROUNDUP
NATIONAL WEATHER SERVICE STATE COLLEGE PA
1200 PM EDT MON MAY 22 2017

Note: "fair" indicates few or no clouds below 12,000 feet with no
significant weather and/or obstructions to visibility.

* = STATION THAT DOES NOT REPORT PRECIPITATION /E.G. RAIN...SNOW...ETC/
    THUNDER OR FOG.

PAZ002>004-007>009-013>016-020>023-029>032-221700-
WESTERN PENNSYLVANIA

CITY           SKY/WX    TMP DP  RH WIND       PRES   REMARKS
ERIE           CLOUDY    56  44  64 W21G29    30.03R
MEADVILLE      PTSUNNY   57  48  72 W14G22    30.05R
FRANKLIN*      CLOUDY    61  52  72 W15G22    30.04R
NEW CASTLE     PTSUNNY   59  49  69 W16G23    30.06R
BEAVER COUNTY  MOSUNNY   63  50  63 W9G22     30.06
BUTLER*        CLOUDY    61  52  72 W13G20    30.05R
PITTSBURGH INT PTSUNNY   61  52  72 W13G20    30.05R
PITTSBURGH     CLOUDY    62  53  72 W10G22    30.05R
INDIANA*       NOT AVBL
LATROBE        NOT AVBL
WASHINGTON CO* PTSUNNY   63  52  67 W10G17    30.08F
$$

PAZ004>006-010>012-017>019-024>028-033>037-041-042-045-046-049>053-221700-
CENTRAL PENNSYLVANIA

CITY           SKY/WX    TMP DP  RH WIND       PRES   REMARKS
BRADFORD       CLOUDY    60  55  83 W8        29.99S
DUBOIS         CLOUDY    62  54  74 W10       30.00S
CLEARFIELD     CLOUDY    62  61  96 SW7       30.01S
JOHNSTOWN      CLOUDY    63  59  87 W10G17    30.04R
ALTOONA        CLOUDY    66  59  78 SW6       30.02F
STATE COLLEGE  CLOUDY    59  57  94 S6        30.02S
WILLIAMSPORT   CLOUDY    60  54  80 VRB5      30.01F
SELINSGROVE    CLOUDY    60  55  83 S8        30.04F
FT INDIANTOWN  CLOUDY    57  57 100 E3        30.05F
CAPITAL CITY   CLOUDY    60  55  83 E7        30.04F
HARRISBURG     CLOUDY    60  58  92 SE6       30.04F
YORK           CLOUDY    61  59  93 SE3       30.04F
$$

PAZ038>040-043-044-047-048-054-055-060>062-067>071-221700-
EASTERN PENNSYLVANIA

CITY           SKY/WX    TMP DP  RH WIND       PRES   REMARKS
SCRANTON       CLOUDY    62  55  77 VRB3      30.03F
MOUNT POCONO   FOG       51  51 100 SE7       30.07F VSB 1/4
ALLENTOWN      LGT RAIN  57  53  86 VRB3      30.07F
QUAKERTOWN*    CLOUDY    55  55 100 E3        30.07F
READING        LGT RAIN  57  56  96 CALM      30.06S
LANCASTER      CLOUDY    60  58  92 E5        30.05F
COATESVILLE    LGT RAIN  57  57 100 CALM      30.08R
POTTSTOWN      LGT RAIN  57  56  96 E3        30.07F FOG
BLUE BELL      CLOUDY    57  57 100 SE3       30.07F
DOYLESTOWN     LGT RAIN  56  56 100 VRB3      30.06F
WILLOW GROVE   NOT AVBL
NORTH PHILA    LGT RAIN  61  59  93 E6        30.07F FOG
PHILADELPHIA   CLOUDY    60  58  92 E6        30.06F
$$



USA.gov is the U.S. government's official web portal to all federal, state and local government web resources and services.